Location: Bottenau
(48.5138°N, 8.0462°E)
Time: 04:37:23
(UTC+00:00)

Cosmos 1954 Rocket - Pass Details

Date: 18 April 2021
Orbit: 752 x 781 km, 74.0° (Epoch: 09 May)

Event Time Altitude Azimuth Distance (km) Brightness Sun altitude
Exits shadow 21:12:19 63° 130° (SE) 843 3.9 -23.3°
Maximum altitude 21:12:39 64° 108° (ESE) 832 3.9 -23.4°
Drops below altitude 10° 21:17:46 10° 28° (NNE) 2,287 6.8 -23.9°
Sets 21:20:09 0° 26° (NNE) 3,217 7.6 -24.1°
